Time,TemperatureF,DewpointF,PressureIn,WindDirection,WindDirectionDegrees,WindSpeedMPH,WindSpeedGustMPH,Humidity,HourlyPrecipIn,Conditions,Clouds,dailyrainin,SoftwareType,DateUTC
2013-04-16 00:04:00,37.0,35.4,30.39,West,270,0.0,3.0,94,0.00,,,0.00,Weather View 32 v70,2013-04-16 04:04:00,
2013-04-16 00:10:00,37.0,35.4,30.39,WSW,248,1.0,3.0,94,0.00,,,0.00,Weather View 32 v70,2013-04-16 04:10:00,
2013-04-16 00:14:00,37.0,35.7,30.39,West,270,1.0,3.0,95,0.00,,,0.00,Weather View 32 v70,2013-04-16 04:14:00,
2013-04-16 00:19:00,36.0,34.7,30.39,WNW,292,0.0,3.0,95,0.00,,,0.00,Weather View 32 v70,2013-04-16 04:19:00,
2013-04-16 00:24:00,36.0,35.0,30.40,WSW,248,1.0,3.0,96,0.00,,,0.00,Weather View 32 v70,2013-04-16 04:24:00,
2013-04-16 00:35:00,36.0,35.2,30.39,SW,225,0.0,3.0,97,0.00,,,0.00,Weather View 32 v70,2013-04-16 04:35:00,
2013-04-16 00:42:00,36.0,35.2,30.39,West,270,1.0,3.0,97,0.00,,,0.00,Weather View 32 v70,2013-04-16 04:42:00,
2013-04-16 00:49:00,36.0,35.5,30.39,West,270,0.0,3.0,98,0.00,,,0.00,Weather View 32 v70,2013-04-16 04:49:00,
2013-04-16 00:59:00,36.0,35.5,30.39,WSW,248,1.0,3.0,98,0.00,,,0.00,Weather View 32 v70,2013-04-16 04:59:00,
2013-04-16 01:05:00,36.0,35.7,30.39,SSW,202,0.0,3.0,99,0.00,,,0.00,Weather View 32 v70,2013-04-16 05:05:00,
2013-04-16 01:14:00,35.0,34.7,30.38,SW,225,0.0,3.0,99,0.00,,,0.00,Weather View 32 v70,2013-04-16 05:14:00,
2013-04-16 01:25:00,36.0,36.0,30.38,West,270,0.0,4.0,100,0.00,,,0.00,Weather View 32 v70,2013-04-16 05:25:00,
2013-04-16 01:34:00,36.0,36.0,30.38,SW,225,1.0,4.0,100,0.00,,,0.00,Weather View 32 v70,2013-04-16 05:34:00,
2013-04-16 01:42:00,36.0,36.0,30.38,WNW,292,1.0,4.0,100,0.00,,,0.00,Weather View 32 v70,2013-04-16 05:42:00,
2013-04-16 01:49:00,36.0,36.0,30.38,SSE,158,1.0,5.0,100,0.00,,,0.00,Weather View 32 v70,2013-04-16 05:49:00,
2013-04-16 02:00:00,36.0,36.0,30.37,SE,135,1.0,5.0,100,0.00,,,0.00,Weather View 32 v70,2013-04-16 06:00:00,
2013-04-16 02:09:00,36.0,36.0,30.37,South,180,0.0,5.0,100,0.00,,,0.00,Weather View 32 v70,2013-04-16 06:09:00,
2013-04-16 02:15:00,36.0,36.0,30.37,West,270,0.0,5.0,100,0.00,,,0.00,Weather View 32 v70,2013-04-16 06:15:00,
2013-04-16 02:24:00,36.0,36.0,30.37,South,180,1.0,5.0,100,0.00,,,0.00,Weather View 32 v70,2013-04-16 06:24:00,
2013-04-16 02:34:00,36.0,36.0,30.36,SW,225,1.0,5.0,100,0.00,,,0.00,Weather View 32 v70,2013-04-16 06:34:00,
2013-04-16 02:40:00,35.0,35.0,30.37,West,270,1.0,5.0,100,0.00,,,0.00,Weather View 32 v70,2013-04-16 06:40:00,
2013-04-16 02:50:00,35.0,35.0,30.37,SW,225,0.0,5.0,100,0.00,,,0.00,Weather View 32 v70,2013-04-16 06:50:00,
2013-04-16 02:59:00,34.0,34.0,30.37,SSE,158,0.0,3.0,100,0.00,,,0.00,Weather View 32 v70,2013-04-16 06:59:00,
2013-04-16 03:10:00,34.0,34.0,30.37,WNW,292,1.0,3.0,100,0.00,,,0.00,Weather View 32 v70,2013-04-16 07:10:00,
2013-04-16 03:19:00,35.0,35.0,30.37,WNW,292,0.0,4.0,100,0.00,,,0.00,Weather View 32 v70,2013-04-16 07:19:00,
2013-04-16 03:25:00,35.0,35.0,30.37,West,270,1.0,4.0,100,0.00,,,0.00,Weather View 32 v70,2013-04-16 07:25:00,
2013-04-16 03:34:00,35.0,35.0,30.37,SW,225,0.0,4.0,100,0.00,,,0.00,Weather View 32 v70,2013-04-16 07:34:00,
2013-04-16 03:43:00,35.0,35.0,30.37,SW,225,0.0,4.0,100,0.00,,,0.00,Weather View 32 v70,2013-04-16 07:43:00,
2013-04-16 03:49:00,34.0,34.0,30.37,WSW,248,0.0,4.0,100,0.00,,,0.00,Weather View 32 v70,2013-04-16 07:49:00,
2013-04-16 04:00:00,34.0,34.0,30.38,SW,225,0.0,4.0,100,0.00,,,0.00,Weather View 32 v70,2013-04-16 08:00:00,
2013-04-16 04:09:00,34.0,34.0,30.37,SSW,202,0.0,4.0,100,0.00,,,0.00,Weather View 32 v70,2013-04-16 08:09:00,
2013-04-16 04:20:00,33.0,33.0,30.37,WNW,292,1.0,2.0,100,0.00,,,0.00,Weather View 32 v70,2013-04-16 08:20:00,
2013-04-16 04:29:00,33.0,33.0,30.37,South,180,0.0,2.0,100,0.00,,,0.00,Weather View 32 v70,2013-04-16 08:29:00,
2013-04-16 04:40:00,33.0,33.0,30.37,WSW,248,3.0,3.0,100,0.00,,,0.00,Weather View 32 v70,2013-04-16 08:40:00,
2013-04-16 04:49:00,33.0,33.0,30.37,West,270,1.0,3.0,100,0.00,,,0.00,Weather View 32 v70,2013-04-16 08:49:00,
2013-04-16 05:00:00,34.0,34.0,30.37,South,180,1.0,3.0,100,0.00,,,0.00,Weather View 32 v70,2013-04-16 09:00:00,
2013-04-16 05:09:00,35.0,35.0,30.36,SSW,202,1.0,5.0,100,0.00,,,0.00,Weather View 32 v70,2013-04-16 09:09:00,
2013-04-16 05:15:00,35.0,35.0,30.36,SSW,202,2.0,5.0,100,0.00,,,0.00,Weather View 32 v70,2013-04-16 09:15:00,
2013-04-16 05:24:00,35.0,35.0,30.36,South,180,1.0,5.0,100,0.00,,,0.00,Weather View 32 v70,2013-04-16 09:24:00,
2013-04-16 05:29:00,35.0,35.0,30.36,WNW,292,1.0,5.0,100,0.00,,,0.00,Weather View 32 v70,2013-04-16 09:29:00,
2013-04-16 05:34:00,36.0,36.0,30.36,SE,135,1.0,5.0,100,0.00,,,0.00,Weather View 32 v70,2013-04-16 09:34:00,
2013-04-16 05:40:00,36.0,36.0,30.36,SE,135,1.0,5.0,100,0.00,,,0.00,Weather View 32 v70,2013-04-16 09:40:00,
2013-04-16 05:49:00,37.0,37.0,30.36,South,180,0.0,5.0,100,0.00,,,0.00,Weather View 32 v70,2013-04-16 09:49:00,
2013-04-16 06:00:00,37.0,37.0,30.35,WNW,292,1.0,5.0,100,0.00,,,0.00,Weather View 32 v70,2013-04-16 10:00:00,
2013-04-16 06:09:00,38.0,37.5,30.36,South,180,1.0,5.0,98,0.00,,,0.00,Weather View 32 v70,2013-04-16 10:09:00,
2013-04-16 06:19:00,38.0,36.4,30.36,SW,225,1.0,8.0,94,0.00,,,0.00,Weather View 32 v70,2013-04-16 10:19:00,
2013-04-16 06:25:00,38.0,36.2,30.37,SW,225,1.0,8.0,93,0.00,,,0.00,Weather View 32 v70,2013-04-16 10:25:00,
2013-04-16 06:30:00,38.0,35.6,30.36,South,180,0.0,8.0,91,0.00,,,0.00,Weather View 32 v70,2013-04-16 10:30:00,
2013-04-16 06:39:00,38.0,35.3,30.36,West,270,0.0,8.0,90,0.00,,,0.00,Weather View 32 v70,2013-04-16 10:39:00,
2013-04-16 06:45:00,39.0,36.0,30.36,WNW,292,1.0,8.0,89,0.00,,,0.00,Weather View 32 v70,2013-04-16 10:45:00,
2013-04-16 06:54:00,39.0,35.5,30.35,South,180,1.0,8.0,87,0.00,,,0.00,Weather View 32 v70,2013-04-16 10:54:00,
2013-04-16 06:59:00,39.0,35.2,30.35,SSE,158,1.0,8.0,86,0.00,,,0.00,Weather View 32 v70,2013-04-16 10:59:00,
2013-04-16 07:10:00,39.0,34.9,30.35,SE,135,4.0,8.0,85,0.00,,,0.00,Weather View 32 v70,2013-04-16 11:10:00,
2013-04-16 07:14:00,40.0,35.6,30.35,SSE,158,8.0,9.0,84,0.00,,,0.00,Weather View 32 v70,2013-04-16 11:14:00,
2013-04-16 07:24:00,40.0,34.9,30.36,SSE,158,3.0,13.0,82,0.00,,,0.00,Weather View 32 v70,2013-04-16 11:24:00,
2013-04-16 07:29:00,40.0,34.6,30.35,SSW,202,5.0,13.0,81,0.00,,,0.00,Weather View 32 v70,2013-04-16 11:29:00,
2013-04-16 07:35:00,40.0,34.3,30.35,SE,135,2.0,13.0,80,0.00,,,0.00,Weather View 32 v70,2013-04-16 11:35:00,
2013-04-16 07:40:00,40.0,34.3,30.35,SE,135,3.0,13.0,80,0.00,,,0.00,Weather View 32 v70,2013-04-16 11:40:00,
2013-04-16 07:46:00,40.0,34.3,30.35,SSW,202,9.0,13.0,80,0.00,,,0.00,Weather View 32 v70,2013-04-16 11:46:00,
2013-04-16 07:55:00,41.0,34.7,30.36,South,180,2.0,13.0,78,0.00,,,0.00,Weather View 32 v70,2013-04-16 11:55:00,
2013-04-16 08:04:00,41.0,34.3,30.36,SE,135,3.0,13.0,77,0.00,,,0.00,Weather View 32 v70,2013-04-16 12:04:00,
2013-04-16 08:15:00,41.0,34.3,30.36,South,180,8.0,13.0,77,0.00,,,0.00,Weather View 32 v70,2013-04-16 12:15:00,
2013-04-16 08:24:00,41.0,34.3,30.35,South,180,6.0,11.0,77,0.00,,,0.00,Weather View 32 v70,2013-04-16 12:24:00,
2013-04-16 08:34:00,42.0,35.3,30.35,SW,225,3.0,11.0,77,0.00,,,0.00,Weather View 32 v70,2013-04-16 12:34:00,
2013-04-16 08:45:00,42.0,36.0,30.35,SSW,202,3.0,11.0,79,0.00,,,0.00,Weather View 32 v70,2013-04-16 12:45:00,
2013-04-16 08:54:00,43.0,36.9,30.35,South,180,8.0,11.0,79,0.00,,,0.00,Weather View 32 v70,2013-04-16 12:54:00,
2013-04-16 09:00:00,43.0,36.6,30.35,South,180,9.0,13.0,78,0.00,,,0.00,Weather View 32 v70,2013-04-16 13:00:00,
2013-04-16 09:09:00,43.0,36.3,30.34,West,270,3.0,15.0,77,0.00,,,0.00,Weather View 32 v70,2013-04-16 13:09:00,
2013-04-16 09:19:00,44.0,37.2,30.33,South,180,6.0,17.0,77,0.00,,,0.00,Weather View 32 v70,2013-04-16 13:19:00,
2013-04-16 09:30:00,44.0,36.9,30.33,SE,135,7.0,17.0,76,0.00,,,0.00,Weather View 32 v70,2013-04-16 13:30:00,
2013-04-16 09:34:00,45.0,37.5,30.33,South,180,9.0,17.0,75,0.00,,,0.00,Weather View 32 v70,2013-04-16 13:34:00,
2013-04-16 09:44:00,45.0,36.9,30.32,SSE,158,13.0,19.0,73,0.00,,,0.00,Weather View 32 v70,2013-04-16 13:44:00,
2013-04-16 09:49:00,46.0,37.5,30.32,South,180,10.0,19.0,72,0.00,,,0.00,Weather View 32 v70,2013-04-16 13:49:00,
2013-04-16 09:59:00,48.0,38.3,30.32,SSW,202,5.0,19.0,69,0.00,,,0.00,Weather View 32 v70,2013-04-16 13:59:00,
2013-04-16 10:10:00,49.0,38.1,30.32,SSW,202,5.0,19.0,66,0.00,,,0.00,Weather View 32 v70,2013-04-16 14:10:00,
2013-04-16 10:19:00,49.0,37.7,30.31,South,180,13.0,19.0,65,0.00,,,0.00,Weather View 32 v70,2013-04-16 14:19:00,
2013-04-16 10:30:00,51.0,39.2,30.32,South,180,5.0,21.0,64,0.00,,,0.00,Weather View 32 v70,2013-04-16 14:30:00,
2013-04-16 10:39:00,51.0,38.8,30.31,SSE,158,13.0,21.0,63,0.00,,,0.00,Weather View 32 v70,2013-04-16 14:39:00,
2013-04-16 10:44:00,51.0,38.8,30.31,SSW,202,10.0,21.0,63,0.00,,,0.00,Weather View 32 v70,2013-04-16 14:44:00,
2013-04-16 10:50:00,51.0,38.4,30.31,South,180,11.0,21.0,62,0.00,,,0.00,Weather View 32 v70,2013-04-16 14:50:00,
2013-04-16 10:59:00,51.0,38.4,30.29,WSW,248,3.0,21.0,62,0.00,,,0.00,Weather View 32 v70,2013-04-16 14:59:00,
2013-04-16 11:05:00,51.0,38.8,30.29,SSE,158,10.0,21.0,63,0.00,,,0.00,Weather View 32 v70,2013-04-16 15:05:00,
2013-04-16 11:14:00,51.0,38.8,30.29,SE,135,7.0,21.0,63,0.00,,,0.00,Weather View 32 v70,2013-04-16 15:14:00,
2013-04-16 11:24:00,51.0,38.8,30.29,West,270,3.0,19.0,63,0.00,,,0.00,Weather View 32 v70,2013-04-16 15:24:00,
2013-04-16 11:30:00,51.0,38.8,30.29,WSW,248,3.0,19.0,63,0.00,,,0.00,Weather View 32 v70,2013-04-16 15:30:00,
2013-04-16 11:39:00,52.0,39.4,30.27,SE,135,10.0,19.0,62,0.00,,,0.00,Weather View 32 v70,2013-04-16 15:39:00,
2013-04-16 11:48:00,52.0,39.8,30.26,South,180,15.0,19.0,63,0.00,,,0.00,Weather View 32 v70,2013-04-16 15:48:00,
2013-04-16 11:54:00,53.0,40.3,30.25,SE,135,5.0,19.0,62,0.00,,,0.00,Weather View 32 v70,2013-04-16 15:54:00,
2013-04-16 12:04:00,54.0,40.0,30.24,SSE,158,5.0,19.0,59,0.00,,,0.00,Weather View 32 v70,2013-04-16 16:04:00,
2013-04-16 12:10:00,55.0,40.5,30.23,SE,135,5.0,19.0,58,0.00,,,0.00,Weather View 32 v70,2013-04-16 16:10:00,
2013-04-16 12:15:00,55.0,40.5,30.23,South,180,13.0,19.0,58,0.00,,,0.00,Weather View 32 v70,2013-04-16 16:15:00,
2013-04-16 12:24:00,56.0,41.4,30.23,SE,135,3.0,19.0,58,0.00,,,0.00,Weather View 32 v70,2013-04-16 16:24:00,
2013-04-16 12:34:00,57.0,41.9,30.23,SSE,158,8.0,22.0,57,0.00,,,0.00,Weather View 32 v70,2013-04-16 16:34:00,
2013-04-16 12:40:00,57.0,41.4,30.23,SSE,158,6.0,22.0,56,0.00,,,0.00,Weather View 32 v70,2013-04-16 16:40:00,
2013-04-16 12:49:00,58.0,42.4,30.22,WSW,248,4.0,22.0,56,0.00,,,0.00,Weather View 32 v70,2013-04-16 16:49:00,
2013-04-16 12:55:00,59.0,42.8,30.21,South,180,6.0,22.0,55,0.00,,,0.00,Weather View 32 v70,2013-04-16 16:55:00,
2013-04-16 13:04:00,59.0,42.3,30.21,WNW,292,4.0,22.0,54,0.00,,,0.00,Weather View 32 v70,2013-04-16 17:04:00,
2013-04-16 13:14:00,59.0,42.3,30.20,SW,225,9.0,22.0,54,0.00,,,0.00,Weather View 32 v70,2013-04-16 17:14:00,
2013-04-16 13:20:00,60.0,43.3,30.19,SE,135,8.0,22.0,54,0.00,,,0.00,Weather View 32 v70,2013-04-16 17:20:00,
2013-04-16 13:29:00,60.0,43.3,30.18,South,180,8.0,22.0,54,0.00,,,0.00,Weather View 32 v70,2013-04-16 17:29:00,
2013-04-16 13:34:00,60.0,42.8,30.18,South,180,16.0,19.0,53,0.00,,,0.00,Weather View 32 v70,2013-04-16 17:34:00,
2013-04-16 13:39:00,60.0,42.8,30.17,SSW,202,7.0,19.0,53,0.00,,,0.00,Weather View 32 v70,2013-04-16 17:39:00,
2013-04-16 13:49:00,60.0,43.3,30.17,SW,225,5.0,19.0,54,0.00,,,0.00,Weather View 32 v70,2013-04-16 17:49:00,
2013-04-16 13:54:00,61.0,43.7,30.17,South,180,3.0,19.0,53,0.00,,,0.00,Weather View 32 v70,2013-04-16 17:54:00,
2013-04-16 14:05:00,61.0,43.2,30.16,SW,225,6.0,21.0,52,0.00,,,0.00,Weather View 32 v70,2013-04-16 18:05:00,
2013-04-16 14:14:00,62.0,44.1,30.16,SSW,202,5.0,21.0,52,0.00,,,0.00,Weather View 32 v70,2013-04-16 18:14:00,
2013-04-16 14:19:00,62.0,44.1,30.16,South,180,6.0,21.0,52,0.00,,,0.00,Weather View 32 v70,2013-04-16 18:19:00,
2013-04-16 14:25:00,62.0,44.1,30.15,South,180,8.0,21.0,52,0.00,,,0.00,Weather View 32 v70,2013-04-16 18:25:00,
2013-04-16 14:30:00,62.0,44.1,30.15,South,180,14.0,21.0,52,0.00,,,0.00,Weather View 32 v70,2013-04-16 18:30:00,
2013-04-16 14:39:00,62.0,44.1,30.14,South,180,8.0,21.0,52,0.00,,,0.00,Weather View 32 v70,2013-04-16 18:39:00,
2013-04-16 14:50:00,62.0,44.6,30.13,SSW,202,6.0,21.0,53,0.00,,,0.00,Weather View 32 v70,2013-04-16 18:50:00,
2013-04-16 14:59:00,61.0,45.2,30.13,South,180,6.0,21.0,56,0.00,,,0.00,Weather View 32 v70,2013-04-16 18:59:00,
2013-04-16 15:05:00,61.0,47.0,30.14,South,180,13.0,21.0,60,0.00,,,0.00,Weather View 32 v70,2013-04-16 19:05:00,
2013-04-16 15:14:00,60.0,47.3,30.14,South,180,3.0,21.0,63,0.00,,,0.00,Weather View 32 v70,2013-04-16 19:14:00,
2013-04-16 15:24:00,58.0,46.3,30.13,South,180,9.0,21.0,65,0.00,,,0.00,Weather View 32 v70,2013-04-16 19:24:00,
2013-04-16 15:30:00,58.0,47.1,30.12,SSE,158,3.0,21.0,67,0.00,,,0.00,Weather View 32 v70,2013-04-16 19:30:00,
2013-04-16 15:35:00,58.0,47.5,30.12,SSE,158,8.0,19.0,68,0.00,,,0.00,Weather View 32 v70,2013-04-16 19:35:00,
2013-04-16 15:44:00,56.0,46.7,30.11,SSW,202,5.0,19.0,71,0.00,,,0.00,Weather View 32 v70,2013-04-16 19:44:00,
2013-04-16 15:50:00,57.0,48.8,30.12,South,180,5.0,19.0,74,0.00,,,0.00,Weather View 32 v70,2013-04-16 19:50:00,
2013-04-16 15:59:00,56.0,49.6,30.12,South,180,4.0,16.0,79,0.01,,,0.01,Weather View 32 v70,2013-04-16 19:59:00,
2013-04-16 16:04:00,55.0,49.6,30.11,SW,225,3.0,16.0,82,0.01,,,0.01,Weather View 32 v70,2013-04-16 20:04:00,
2013-04-16 16:15:00,54.0,49.6,30.11,South,180,6.0,16.0,85,0.01,,,0.01,Weather View 32 v70,2013-04-16 20:15:00,
2013-04-16 16:24:00,54.0,50.8,30.11,SSE,158,11.0,16.0,89,0.03,,,0.03,Weather View 32 v70,2013-04-16 20:24:00,
2013-04-16 16:34:00,54.0,50.8,30.10,South,180,15.0,16.0,89,0.03,,,0.03,Weather View 32 v70,2013-04-16 20:34:00,
2013-04-16 16:40:00,54.0,50.5,30.10,West,270,4.0,21.0,88,0.04,,,0.04,Weather View 32 v70,2013-04-16 20:40:00,
2013-04-16 16:49:00,54.0,50.5,30.09,West,270,3.0,21.0,88,0.04,,,0.04,Weather View 32 v70,2013-04-16 20:49:00,
2013-04-16 16:55:00,54.0,50.5,30.09,South,180,6.0,21.0,88,0.03,,,0.04,Weather View 32 v70,2013-04-16 20:55:00,
2013-04-16 17:04:00,54.0,50.8,30.08,South,180,4.0,21.0,89,0.03,,,0.04,Weather View 32 v70,2013-04-16 21:04:00,
2013-04-16 17:10:00,54.0,50.8,30.09,SW,225,6.0,21.0,89,0.03,,,0.04,Weather View 32 v70,2013-04-16 21:10:00,
2013-04-16 17:14:00,54.0,50.8,30.08,SW,225,6.0,21.0,89,0.03,,,0.04,Weather View 32 v70,2013-04-16 21:14:00,
2013-04-16 17:24:00,54.0,50.5,30.07,SW,225,6.0,21.0,88,0.01,,,0.04,Weather View 32 v70,2013-04-16 21:24:00,
2013-04-16 17:29:00,54.0,50.8,30.07,SSW,202,6.0,21.0,89,0.01,,,0.04,Weather View 32 v70,2013-04-16 21:29:00,
2013-04-16 17:35:00,54.0,50.5,30.07,SSE,158,9.0,21.0,88,0.01,,,0.04,Weather View 32 v70,2013-04-16 21:35:00,
2013-04-16 17:44:00,54.0,50.2,30.07,WSW,248,5.0,17.0,87,0.00,,,0.04,Weather View 32 v70,2013-04-16 21:44:00,
2013-04-16 17:52:00,54.0,49.9,30.06,WNW,292,4.0,17.0,86,0.00,,,0.04,Weather View 32 v70,2013-04-16 21:52:00,
2013-04-16 17:59:00,55.0,49.9,30.05,SW,225,10.0,17.0,83,0.01,,,0.05,Weather View 32 v70,2013-04-16 21:59:00,
2013-04-16 18:09:00,56.0,50.2,30.06,SSW,202,10.0,20.0,81,0.01,,,0.05,Weather View 32 v70,2013-04-16 22:09:00,
2013-04-16 18:20:00,56.0,49.9,30.06,SW,225,6.0,20.0,80,0.01,,,0.05,Weather View 32 v70,2013-04-16 22:20:00,
2013-04-16 18:29:00,56.0,49.6,30.04,WSW,248,7.0,20.0,79,0.01,,,0.05,Weather View 32 v70,2013-04-16 22:29:00,
2013-04-16 18:34:00,56.0,49.6,30.05,WNW,292,5.0,24.0,79,0.01,,,0.05,Weather View 32 v70,2013-04-16 22:34:00,
2013-04-16 18:45:00,56.0,49.6,30.03,West,270,6.0,24.0,79,0.01,,,0.05,Weather View 32 v70,2013-04-16 22:45:00,
2013-04-16 18:49:00,56.0,49.9,30.02,South,180,13.0,24.0,80,0.01,,,0.05,Weather View 32 v70,2013-04-16 22:49:00,
2013-04-16 19:00:00,56.0,49.6,30.02,SSE,158,18.0,25.0,79,0.00,,,0.05,Weather View 32 v70,2013-04-16 23:00:00,
2013-04-16 19:09:00,56.0,49.9,30.02,SW,225,8.0,25.0,80,0.00,,,0.05,Weather View 32 v70,2013-04-16 23:09:00,
2013-04-16 19:19:00,56.0,49.6,30.02,WSW,248,13.0,34.0,79,0.00,,,0.05,Weather View 32 v70,2013-04-16 23:19:00,
2013-04-16 19:25:00,56.0,49.6,30.01,SW,225,10.0,34.0,79,0.00,,,0.05,Weather View 32 v70,2013-04-16 23:25:00,
2013-04-16 19:34:00,56.0,49.9,30.03,SSE,158,13.0,34.0,80,0.00,,,0.05,Weather View 32 v70,2013-04-16 23:34:00,
2013-04-16 19:39:00,56.0,49.6,30.03,South,180,12.0,34.0,79,0.00,,,0.05,Weather View 32 v70,2013-04-16 23:39:00,
2013-04-16 19:50:00,56.0,49.9,30.01,SW,225,5.0,34.0,80,0.00,,,0.05,Weather View 32 v70,2013-04-16 23:50:00,
2013-04-16 19:59:00,56.0,49.9,30.01,SW,225,8.0,34.0,80,0.00,,,0.05,Weather View 32 v70,2013-04-16 23:59:00,
2013-04-16 20:05:00,56.0,49.9,30.01,SE,135,6.0,34.0,80,0.00,,,0.05,Weather View 32 v70,2013-04-17 00:05:00,
2013-04-16 20:10:00,56.0,49.9,30.02,West,270,13.0,34.0,80,0.00,,,0.05,Weather View 32 v70,2013-04-17 00:10:00,
2013-04-16 20:19:00,56.0,49.9,30.02,WSW,248,5.0,28.0,80,0.00,,,0.05,Weather View 32 v70,2013-04-17 00:19:00,
2013-04-16 20:29:00,56.0,50.2,30.02,SW,225,12.0,28.0,81,0.00,,,0.05,Weather View 32 v70,2013-04-17 00:29:00,
2013-04-16 20:35:00,56.0,50.2,30.02,WNW,292,13.0,28.0,81,0.00,,,0.05,Weather View 32 v70,2013-04-17 00:35:00,
2013-04-16 20:44:00,56.0,50.2,30.01,West,270,8.0,28.0,81,0.00,,,0.05,Weather View 32 v70,2013-04-17 00:44:00,
2013-04-16 20:53:00,56.0,50.6,30.02,South,180,14.0,28.0,82,0.00,,,0.05,Weather View 32 v70,2013-04-17 00:53:00,
2013-04-16 20:59:00,56.0,50.6,30.01,SSE,158,3.0,28.0,82,0.00,,,0.05,Weather View 32 v70,2013-04-17 00:59:00,
2013-04-16 21:05:00,55.0,49.6,30.00,SE,135,10.0,28.0,82,0.00,,,0.05,Weather View 32 v70,2013-04-17 01:05:00,
2013-04-16 21:14:00,55.0,49.9,30.00,SW,225,8.0,28.0,83,0.00,,,0.05,Weather View 32 v70,2013-04-17 01:14:00,
2013-04-16 21:19:00,55.0,49.9,30.00,SSW,202,9.0,28.0,83,0.00,,,0.05,Weather View 32 v70,2013-04-17 01:19:00,
2013-04-16 21:30:00,55.0,50.2,30.00,South,180,11.0,28.0,84,0.00,,,0.05,Weather View 32 v70,2013-04-17 01:30:00,
2013-04-16 21:39:00,55.0,50.6,30.00,SW,225,14.0,31.0,85,0.00,,,0.05,Weather View 32 v70,2013-04-17 01:39:00,
2013-04-16 21:49:00,55.0,50.6,30.01,SW,225,6.0,31.0,85,0.00,,,0.05,Weather View 32 v70,2013-04-17 01:49:00,
2013-04-16 21:54:00,55.0,50.6,30.02,SSW,202,5.0,31.0,85,0.00,,,0.05,Weather View 32 v70,2013-04-17 01:54:00,
2013-04-16 22:04:00,55.0,50.6,30.02,South,180,8.0,32.0,85,0.00,,,0.05,Weather View 32 v70,2013-04-17 02:04:00,
2013-04-16 22:15:00,55.0,50.9,30.02,SSE,158,5.0,32.0,86,0.00,,,0.05,Weather View 32 v70,2013-04-17 02:15:00,
2013-04-16 22:24:00,55.0,51.2,30.02,SE,135,11.0,32.0,87,0.00,,,0.05,Weather View 32 v70,2013-04-17 02:24:00,
2013-04-16 22:35:00,55.0,51.8,30.02,South,180,14.0,32.0,89,0.00,,,0.05,Weather View 32 v70,2013-04-17 02:35:00,
2013-04-16 22:40:00,54.0,51.1,30.02,SSE,158,5.0,32.0,90,0.00,,,0.05,Weather View 32 v70,2013-04-17 02:40:00,
2013-04-16 22:49:00,54.0,51.4,30.02,West,270,6.0,32.0,91,0.00,,,0.05,Weather View 32 v70,2013-04-17 02:49:00,
2013-04-16 22:55:00,54.0,51.7,30.02,SSW,202,19.0,32.0,92,0.00,,,0.05,Weather View 32 v70,2013-04-17 02:55:00,
2013-04-16 22:59:00,54.0,51.7,30.02,SSW,202,7.0,32.0,92,0.00,,,0.05,Weather View 32 v70,2013-04-17 02:59:00,
2013-04-16 23:10:00,54.0,51.7,30.02,South,180,13.0,27.0,92,0.00,,,0.05,Weather View 32 v70,2013-04-17 03:10:00,
2013-04-16 23:19:00,54.0,51.7,30.01,South,180,14.0,26.0,92,0.00,,,0.05,Weather View 32 v70,2013-04-17 03:19:00,
2013-04-16 23:30:00,54.0,52.3,30.02,South,180,5.0,26.0,94,0.00,,,0.05,Weather View 32 v70,2013-04-17 03:30:00,
2013-04-16 23:35:00,54.0,52.0,30.02,South,180,13.0,29.0,93,0.00,,,0.05,Weather View 32 v70,2013-04-17 03:35:00,
2013-04-16 23:41:00,54.0,52.0,30.02,South,180,13.0,29.0,93,0.00,,,0.05,Weather View 32 v70,2013-04-17 03:41:00,
2013-04-16 23:50:00,55.0,52.7,30.02,WSW,248,6.0,29.0,92,0.00,,,0.05,Weather View 32 v70,2013-04-17 03:50:00,
2013-04-16 23:59:00,55.0,52.7,30.02,SSW,202,12.0,29.0,92,0.00,,,0.00,Weather View 32 v70,2013-04-17 03:59:00,